EW5855 Weather Reports


Display with metric or nautical units.
time (UTC)temp
F
wind
direction
speed
MPH
gust
MPH
rain 1hr
in
rain 24hr
in
rain mn
in
humidity
%
barometer
mb
20260831103519 55 0.0 0.0 0.00 0.02 0.01 99 1020.7
20260831102535 55 210 0.0 2.0 0.00 0.02 0.01 99 1020.8
20260831101530 55 0.0 0.0 0.00 0.02 0.01 99 1020.8
20260831100527 55 0.0 0.0 0.00 0.02 0.01 99 1020.8
20260831095522 55 0.0 0.0 0.01 0.02 0.01 99 1020.7
20260831094518 56 0.0 0.0 0.01 0.02 0.01 99 1020.5
20260831093555 56 0.0 0.0 0.01 0.02 0.01 99 1020.4
20260831092528 56 230 0.0 1.0 0.01 0.02 0.01 99 1020.6
20260831091545 57 261 1.0 2.0 0.01 0.02 0.01 99 1020.6
20260831090521 57 206 2.0 3.0 0.01 0.02 0.01 99 1020.5
20260831085516 57 221 2.0 3.0 0.00 0.01 0.00 99 1020.3
20260831084531 57 219 2.0 3.0 0.00 0.01 0.00 99 1020.3
20260831083530 57 0.0 0.0 0.00 0.01 0.00 99 1020.1
20260831082543 57 0.0 0.0 0.00 0.01 0.00 99 1020.1
20260831081519 57 170 0.0 1.0 0.00 0.01 0.00 99 1020.1
20260831080535 57 219 0.0 1.0 0.00 0.01 0.00 99 1020.1
20260831075551 58 230 1.0 1.0 0.00 0.01 0.00 99 1020.0
20260831074547 58 0.0 0.0 0.00 0.01 0.00 99 1020.0
20260831073543 58 226 0.0 1.0 0.00 0.01 0.00 99 1019.8
20260831072518 58 202 0.0 1.0 0.00 0.01 0.00 99 1019.8
20260831071534 59 229 0.0 1.0 0.00 0.01 0.00 99 1019.9
20260831070531 59 218 1.0 1.0 0.00 0.01 0.00 99 1020.0
20260831065526 60 193 1.0 1.0 0.00 0.01 0.00 99 1019.7
20260831064523 60 220 0.0 1.0 0.00 0.01 0.00 99 1019.7
20260831063519 60 217 0.0 1.0 0.00 0.01 0.00 99 1019.7
20260831062534 61 198 0.0 1.0 0.00 0.01 0.00 99 1019.7
20260831061530 61 221 0.0 1.0 0.00 0.01 0.00 99 1019.7
20260831060526 61 0.0 0.0 0.00 0.01 0.00 99 1019.8
20260831055522 61 0.0 0.0 0.00 0.01 0.00 99 1019.8
20260831054539 61 235 0.0 1.0 0.00 0.01 0.00 99 1019.8
20260831053535 61 0.0 0.0 0.00 0.01 0.00 99 1019.8
20260831052531 62 216 1.0 1.0 0.00 0.01 0.00 99 1019.8
20260831051527 62 211 1.0 1.0 0.00 0.01 0.00 99 1019.7
20260831050524 62 228 1.0 1.0 0.00 0.01 0.00 99 1020.0
20260831045522 62 211 1.0 1.0 0.00 0.01 0.00 99 1019.6
20260831044538 63 206 1.0 1.0 0.00 0.01 0.00 99 1019.6
20260831043535 63 214 1.0 2.0 0.00 0.01 0.00 99 1019.6
20260831042530 63 232 1.0 1.0 0.00 0.01 0.00 99 1019.7
20260831041526 63 189 1.0 2.0 0.00 0.01 0.00 99 1019.6
20260831040521 63 207 1.0 2.0 0.00 0.01 0.00 99 1019.5
20260831035517 63 0.0 0.0 0.00 0.01 0.01 99 1019.5
20260831034532 63 210 1.0 2.0 0.00 0.01 0.01 99 1019.6
20260831033528 63 203 1.0 1.0 0.00 0.01 0.01 99 1019.4
20260831032524 63 206 0.0 1.0 0.00 0.01 0.01 99 1019.6
20260831031520 63 224 1.0 2.0 0.00 0.01 0.01 99 1019.5
20260831030534 63 229 0.0 1.0 0.00 0.01 0.01 99 1019.6
20260831025530 63 178 1.0 2.0 0.00 0.01 0.01 99 1019.5
20260831024524 63 202 1.0 2.0 0.00 0.01 0.01 99 1019.4
20260831023520 63 243 1.0 2.0 0.00 0.01 0.01 99 1019.3
20260831022516 63 189 2.0 2.0 0.00 0.01 0.01 99 1019.3
20260831021551 63 218 1.0 2.0 0.00 0.01 0.01 99 1019.4
20260831020527 64 215 0.0 1.0 0.00 0.01 0.01 99 1019.4
20260831015523 64 197 0.0 1.0 0.00 0.01 0.01 99 1019.4
20260831014519 64 197 0.0 1.0 0.00 0.01 0.01 99 1019.2
20260831013535 64 156 0.0 1.0 0.00 0.01 0.01 99 1019.0
20260831012551 64 216 0.0 1.0 0.00 0.01 0.01 99 1018.7
20260831011527 64 227 1.0 1.0 0.00 0.01 0.01 99 1018.7
20260831010524 65 251 2.0 2.0 0.00 0.01 0.01 99 1018.5
20260831005519 65 192 0.0 1.0 0.00 0.01 0.01 99 1018.4
20260831004515 65 193 1.0 2.0 0.00 0.01 0.01 99 1018.4
20260831003531 65 212 1.0 1.0 0.00 0.01 0.01 99 1018.4
20260831002526 66 185 0.0 1.0 0.00 0.01 0.01 99 1018.2
20260831001602 66 223 0.0 1.0 0.00 0.01 0.01 99 1018.0
20260831000518 66 300 1.0 2.0 0.00 0.01 0.01 99 1017.8
20260830235534 66 214 1.0 1.0 0.00 0.01 0.01 99 1017.6
20260830234549 66 187 1.0 1.0 0.00 0.01 0.01 99 1017.8
20260830233525 66 216 0.0 1.0 0.00 0.01 0.01 99 1017.8
20260830232521 67 244 0.0 1.0 0.00 0.01 0.01 99 1017.8
20260830231516 67 192 1.0 2.0 0.01 0.01 0.01 99 1017.5
20260830230532 67 188 0.0 1.0 0.01 0.01 0.01 99 1017.6
20260830225527 67 183 2.0 2.0 0.01 0.01 0.01 99 1017.7
20260830224523 68 189 1.0 2.0 0.01 0.01 0.01 99 1017.7
20260830223519 68 183 0.0 1.0 0.01 0.01 0.01 99 1017.6
20260830222534 68 182 0.0 1.0 0.01 0.01 0.01 98 1017.6
20260830221530 68 191 0.0 1.0 0.00 0.00 0.00 98 1017.5
20260830220526 69 0.0 0.0 0.00 0.00 0.00 97 1017.4
20260830215522 69 188 0.0 1.0 0.00 0.00 0.00 96 1017.3
20260830214517 70 0.0 0.0 0.00 0.00 0.00 96 1017.2
20260830213533 70 0.0 0.0 0.00 0.00 0.00 95 1017.0
20260830212548 70 0.0 0.0 0.00 0.00 0.00 93 1016.9
20260830211526 70 193 0.0 1.0 0.00 0.00 0.00 92 1016.9
20260830210521 71 186 1.0 1.0 0.00 0.00 0.00 87 1017.2
20260830205517 72 221 1.0 3.0 0.00 0.00 0.00 84 1017.2
20260830204533 73 218 1.0 3.0 0.00 0.00 0.00 82 1017.2
20260830203529 73 211 0.0 1.0 0.00 0.00 0.00 82 1017.1
20260830202524 74 204 1.0 2.0 0.00 0.00 0.00 79 1017.2
20260830201520 74 233 1.0 3.0 0.00 0.00 0.00 78 1017.2
20260830200516 74 214 1.0 2.0 0.00 0.00 0.00 78 1017.2
20260830195532 75 240 2.0 4.0 0.00 0.00 0.00 75 1017.2
20260830194528 75 202 1.0 2.0 0.00 0.00 0.00 74 1017.3
20260830193523 75 207 2.0 4.0 0.00 0.00 0.00 74 1017.5
20260830192539 75 211 3.0 6.0 0.00 0.00 0.00 73 1017.6
20260830191555 76 213 3.0 7.0 0.00 0.00 0.00 71 1017.6
20260830190531 77 230 3.0 8.0 0.00 0.00 0.00 69 1017.8
20260830185527 77 209 3.0 10.0 0.00 0.00 0.00 69 1017.9
20260830184522 77 213 3.0 7.0 0.00 0.00 0.00 70 1018.1
20260830183539 76 252 4.0 10.0 0.00 0.00 0.00 71 1018.1
20260830182555 76 235 3.0 8.0 0.00 0.00 0.00 72 1018.2
20260830181531 75 247 3.0 6.0 0.00 0.00 0.00 72 1018.4
20260830180527 74 271 5.0 8.0 0.00 0.00 0.00 73 1018.6
20260830175543 74 226 3.0 7.0 0.00 0.00 0.00 73 1018.6
20260830174519 74 254 3.0 7.0 0.00 0.00 0.00 71 1018.7
20260830173536 74 222 2.0 4.0 0.00 0.00 0.00 70 1018.8
20260830172530 73 246 2.0 4.0 0.00 0.00 0.00 73 1018.8
20260830171524 73 256 3.0 6.0 0.00 0.00 0.00 72 1019.0
20260830170520 73 275 5.0 8.0 0.00 0.00 0.00 71 1019.1
20260830165516 73 259 4.0 8.0 0.00 0.00 0.00 70 1019.3
20260830164532 74 246 2.0 6.0 0.00 0.00 0.00 70 1019.3
20260830163528 73 269 4.0 7.0 0.00 0.00 0.00 71 1019.3
20260830162524 73 262 4.0 7.0 0.00 0.00 0.00 73 1019.4
20260830161519 73 262 4.0 6.0 0.00 0.00 0.00 72 1019.6
20260830160534 74 252 3.0 6.0 0.00 0.00 0.00 72 1019.7
20260830155530 73 228 2.0 4.0 0.00 0.00 0.00 73 1019.8
20260830154545 74 255 2.0 3.0 0.00 0.00 0.00 72 1020.0
20260830153601 74 231 2.0 6.0 0.00 0.00 0.00 71 1019.9
20260830152536 73 234 2.0 3.0 0.00 0.00 0.00 75 1019.9
20260830151532 72 236 1.0 2.0 0.00 0.00 0.00 78 1020.1
20260830150549 71 222 2.0 4.0 0.00 0.00 0.00 78 1020.4
20260830145524 70 215 2.0 6.0 0.00 0.00 0.00 81 1020.3
20260830144519 68 260 4.0 7.0 0.00 0.00 0.00 82 1020.5
20260830143517 69 259 2.0 6.0 0.00 0.00 0.00 82 1019.7
20260830142552 69 140 1.0 3.0 0.00 0.00 0.00 82 1019.9
20260830141528 69 209 0.0 1.0 0.00 0.00 0.00 83 1020.4
20260830140523 68 232 2.0 4.0 0.00 0.00 0.00 80 1020.6
20260830135519 69 225 2.0 7.0 0.00 0.00 0.00 78 1020.7
20260830134554 70 218 3.0 10.0 0.00 0.00 0.00 77 1020.6
20260830133529 69 243 3.0 9.0 0.00 0.00 0.00 80 1020.6
20260830132545 69 232 3.0 6.0 0.00 0.00 0.00 80 1020.4
20260830131520 68 241 3.0 8.0 0.00 0.00 0.00 81 1020.5
20260830130516 67 250 2.0 4.0 0.00 0.00 0.00 84 1020.7
20260830125531 66 197 1.0 4.0 0.00 0.00 0.00 86 1020.7
20260830124527 66 235 2.0 4.0 0.00 0.00 0.00 86 1020.8
20260830123522 66 222 1.0 2.0 0.00 0.00 0.00 87 1020.8
20260830122518 65 218 1.0 2.0 0.00 0.00 0.00 88 1020.8
20260830121533 64 0.0 0.0 0.00 0.00 0.00 92 1020.8
20260830120529 64 183 1.0 1.0 0.00 0.00 0.00 93 1020.7
20260830115525 62 110 1.0 2.0 0.00 0.00 0.00 97 1020.8
20260830114520 60 210 0.0 1.0 0.00 0.00 0.00 99 1020.8
20260830113516 59 0.0 0.0 0.00 0.00 0.00 99 1020.8
20260830112532 58 0.0 0.0 0.00 0.00 0.00 99 1021.1
20260830111527 57 276 0.0 1.0 0.00 0.00 0.00 99 1021.2
20260830110543 56 0.0 0.0 0.00 0.00 0.00 99 1021.1
20260830105518 56 0.0 0.0 0.00 0.00 0.00 99 1021.0
20260830104534 55 0.0 0.0 0.00 0.00 0.00 99 1021.0